Regional Weather Roundup
Issued by NWS Northern Indiana

Home | Current Version | Previous Version | Graphics & Text | Print | Product List | Glossary On
Versions: 1 2 3 4 5 6 7 8 9 10 11 12 13 14 15 16 17 18 19 20 21 22 23 24 25 26 27 28 29 30 31 32 33 34 35 36 37 38 39 40 41 42 43 44 45 46 47 48 49 50
000
ASUS43 KIWX 281710
RWRIWX

KIWX WEATHER ROUNDUP
NATIONAL WEATHER SERVICE NORTHERN INDIANA
100 PM EDT TUE JUL 28 2015

NOTE: "FAIR" INDICATES FEW OR NO CLOUDS BELOW 12,000 FEET WITH NO
SIGNIFICANT WEATHER AND/OR OBSTRUCTIONS TO VISIBILITY.

* THESE STATIONS ARE NOT UNDER NWS QUALITY CONTROL. THEY ALSO MAY NOT
  REPORT WEATHER SUCH AS PRECIPITATION OR FOG.

INZ001>027-281800-
NORTHERN INDIANA

CITY           SKY/WX    TMP DP  RH WIND       PRES   REMARKS
GARY*          MOSUNNY   86  72  62 SE6       29.99F
MICHIGAN CITY* SUNNY     86  64  48 SE6       30.02S
LAPORTE*       SUNNY     86  67  51 SE6       30.02F
KNOX*          SUNNY     84  66  54 S7        30.01R
SOUTH BEND     SUNNY     87  64  46 S9        30.03S
ELKHART*       SUNNY     86  63  45 E7        30.03S
GOSHEN         PTSUNNY   86  68  54 SE9       30.03R
MONTICELLO*    SUNNY     84  74  70 S5        30.00S
LOGANSPORT*    MOSUNNY   86  64  48 E3        30.02R
ROCHESTER*     SUNNY     88  72  58 SE5       30.02S
WARSAW*        SUNNY     86  66  51 SE7       30.03S
ANGOLA*        SUNNY     86  66  51 SE8       30.05S
FORT WAYNE     MOSUNNY   85  67  54 S7        30.04R
HUNTINGTON*    SUNNY     85  68  56 SE7       30.02S
PERU/GRISSOM   MOSUNNY   85  73  65 SE3       30.00S
MARION*        PTSUNNY   84  71  64 SE6       30.02S

$$
INZ028>050-281800-
CENTRAL INDIANA

CITY           SKY/WX    TMP DP  RH WIND       PRES   REMARKS
LAFAYETTE      MOSUNNY   85  73  67 CALM      29.99S
KOKOMO*        MOSUNNY   84  72  65 S5        30.01R
MUNCIE*        MOSUNNY   83  71  67 MISG      30.02R
INDIANAPOLIS   PTSUNNY   87  72  60 VRB5      29.99

$$
MIZ043>046-050>051-056>058-064>065-071>073-077>080-281800-
SOUTHWEST LOWER MICHIGAN

CITY           SKY/WX    TMP DP  RH WIND       PRES   REMARKS
BATTLE CREEK   SUNNY     86  65  49 S8        30.05S
BENTON HARBOR  SUNNY     87  66  49 SE9       30.01F
COLDWATER*     SUNNY     82  63  52 SE6       30.04F
HILLSDALE*     SUNNY     85  65  52 S3        30.06F
HOLLAND        MOSUNNY   87  62  43 S9        30.03S
GRAND RAPIDS   PTSUNNY   86  60  41 S9        30.04F
KALAMAZOO      SUNNY     87  65  47 SE6       30.04F
STURGIS*       SUNNY     84  64  51 S9        30.03F
THREE RIVERS*  FAIR      85  65  51 S5        30.04F

$$
OHZ001>008-015>018-024>025-281800-
NORTHWEST OHIO

CITY           SKY/WX    TMP DP  RH WIND       PRES   REMARKS
DEFIANCE       SUNNY     88  64  44 SE6       30.03S
FINDLAY        SUNNY     87  62  43 CALM      30.02R
TOLEDO EXPRESS SUNNY     87  62  43 VRB5      30.03S
TOLEDO METCALF SUNNY     88  66  48 VRB3      30.04S
LIMA           SUNNY     87  64  46 VRB5      30.03S

$$
AND FOR LAKE MICHIGAN COASTAL AND OPEN LAKE BUOY OBSERVATIONS

STATION/POSITION TEMP    WIND        PRES    VSBY  WAVE
                 AIR SEA DIR/SP/G                  HT/PER
                 (F)     (DEG/KT/KT) (MB)    (MI)  (FT/S)
CALUMET HARBOR    80      50/  7/  9   N/A
MICHIGAN CITY     82     100/  9/ 11   N/A
BURNS HARBOR      84     170/  5/ 10 1016.6R
SAINT JOSEPH      86     190/  7/  9 1016.6F
4 MI NW BRIDGMAN  79 75  160/  2/  4   N/A           1
MICHIGAN CITY     81 76  180/  2/  4   N/A           1
MICHIGAN CITY CG  87 70  180/  4       N/A    3 1/2  1

$$
&&


USA.gov is the U.S. government's official web portal to all federal, state and local government web resources and services.